,,,PA_Meas_PMT16A,,PR_Meas_QMR101_102,,RH_Meas_QMH101,,SR_Meas_QMS101,,TA_Meas_QMH101,,GenWind,,GenWind,
date,time,status,PA,status,PR,status,RH,status,SR,status,TA,status,DirAvg,status,SpdAvg,
2010-02-04, 00:00:04,VALID,1010.73,VALID,0,VALID,85.0119,VALID,0,VALID,24.1032,VALID,279,VALID,0,
2010-02-04, 00:01:04,VALID,1010.68,VALID,0,VALID,85.0272,VALID,0,VALID,24.1032,VALID,279,VALID,0,
2010-02-04, 00:02:04,VALID,1010.72,VALID,0,VALID,85.0729,VALID,0,VALID,24.1032,VALID,279,VALID,0,
2010-02-04, 00:03:04,VALID,1010.72,VALID,0,VALID,85.0424,VALID,0,VALID,24.0624,VALID,279,VALID,0,
2010-02-04, 00:04:04,VALID,1010.71,VALID,0,VALID,85.0424,VALID,0,VALID,24.0624,VALID,279,VALID,0,
2010-02-04, 00:05:04,VALID,1010.72,VALID,0,VALID,85.1187,VALID,0,VALID,24.0448,VALID,279,VALID,0,
2010-02-04, 00:06:04,VALID,1010.74,VALID,0,VALID,85.05,VALID,0,VALID,24.0643,VALID,279,VALID,0,
2010-02-04, 00:07:04,VALID,1010.72,VALID,0,VALID,85.0424,VALID,0,VALID,24.0643,VALID,279,VALID,0,
2010-02-04, 00:08:04,VALID,1010.73,VALID,0,VALID,85.0424,VALID,0,VALID,24.0643,VALID,279,VALID,0,
2010-02-04, 00:09:04,VALID,1010.7,VALID,0,VALID,85.0424,VALID,0.105969,VALID,24.0624,VALID,279,VALID,0,
2010-02-04, 00:10:04,VALID,1010.69,VALID,0,VALID,85.0348,VALID,0,VALID,24.0837,VALID,279,VALID,0,
2010-02-04, 00:11:04,VALID,1010.69,VALID,0,VALID,85.0348,VALID,0,VALID,24.0624,VALID,279,VALID,0,
2010-02-04, 00:12:04,VALID,1010.68,VALID,0,VALID,85.0577,VALID,0,VALID,24.0429,VALID,279,VALID,0,
2010-02-04, 00:13:04,VALID,1010.67,VALID,0,VALID,85.0729,VALID,0,VALID,24.0643,VALID,279,VALID,0,
2010-02-04, 00:14:04,VALID,1010.67,VALID,0,VALID,85.0729,VALID,0,VALID,24.0253,VALID,279,VALID,0,
2010-02-04, 00:15:04,VALID,1010.69,VALID,0,VALID,85.0729,VALID,0,VALID,24.004,VALID,279,VALID,0,
2010-02-04, 00:16:04,VALID,1010.67,VALID,0,VALID,85.0348,VALID,0,VALID,24.0448,VALID,279,VALID,0,
2010-02-04, 00:17:04,VALID,1010.66,VALID,0,VALID,85.0195,VALID,0,VALID,24.0643,VALID,279,VALID,0,
2010-02-04, 00:18:04,VALID,1010.66,VALID,0,VALID,85.0424,VALID,0.105969,VALID,24.0819,VALID,279,VALID,0,
2010-02-04, 00:19:04,VALID,1010.67,VALID,0,VALID,85.0043,VALID,0,VALID,24.1014,VALID,279,VALID,0,
2010-02-04, 00:20:04,VALID,1010.62,VALID,0,VALID,85.0043,VALID,0.105969,VALID,24.1227,VALID,279,VALID,0,
2010-02-04, 00:21:04,VALID,1010.61,VALID,0,VALID,85.0119,VALID,0,VALID,24.1227,VALID,279,VALID,0.0613281,
2010-02-04, 00:22:04,VALID,1010.61,VALID,0,VALID,85.0119,VALID,0,VALID,24.1209,VALID,279,VALID,0.143359,
2010-02-04, 00:23:04,VALID,1010.59,VALID,0,VALID,85.0043,VALID,0.105969,VALID,24.1404,VALID,284,VALID,0.164453,
2010-02-04, 00:24:04,VALID,1010.58,VALID,0,VALID,85.0729,VALID,0.105969,VALID,24.1404,VALID,284,VALID,0.196094,
2010-02-04, 00:25:04,VALID,1010.57,VALID,0,VALID,85.0348,VALID,0,VALID,24.1404,VALID,284,VALID,0,
2010-02-04, 00:26:04,VALID,1010.55,VALID,0,VALID,85.0653,VALID,0,VALID,24.1014,VALID,284,VALID,0.0292969,
2010-02-04, 00:27:04,VALID,1010.51,VALID,0,VALID,85.0195,VALID,0.105969,VALID,24.1617,VALID,284,VALID,0,
2010-02-04, 00:28:04,VALID,1010.5,VALID,0,VALID,85.0424,VALID,0,VALID,24.1227,VALID,284,VALID,0,
2010-02-04, 00:29:04,VALID,1010.46,VALID,0,VALID,85.05,VALID,0,VALID,24.1014,VALID,284,VALID,0,
2010-02-04, 00:30:04,VALID,1010.44,VALID,0,VALID,85.111,VALID,0,VALID,24.1227,VALID,284,VALID,0.127734,
2010-02-04, 00:31:04,VALID,1010.44,VALID,0,VALID,85.0424,VALID,0,VALID,24.1227,VALID,284,VALID,0.0792969,
2010-02-04, 00:32:04,VALID,1010.43,VALID,0,VALID,85.0272,VALID,0,VALID,24.1032,VALID,284,VALID,0.146094,
2010-02-04, 00:33:04,VALID,1010.39,VALID,0,VALID,85.0424,VALID,0.105969,VALID,24.1422,VALID,284,VALID,0.021875,
2010-02-04, 00:34:04,VALID,1010.4,VALID,0,VALID,85.0195,VALID,0,VALID,24.1227,VALID,284,VALID,0.0777344,
2010-02-04, 00:35:04,VALID,1010.39,VALID,0,VALID,85.0272,VALID,0,VALID,24.1227,VALID,284,VALID,0,
2010-02-04, 00:36:04,VALID,1010.37,VALID,0,VALID,85.05,VALID,0.105969,VALID,24.0819,VALID,284,VALID,0,
2010-02-04, 00:37:04,VALID,1010.34,VALID,0,VALID,85.0348,VALID,0,VALID,24.1032,VALID,284,VALID,0,
2010-02-04, 00:38:04,VALID,1010.35,VALID,0,VALID,85.0424,VALID,0,VALID,24.0837,VALID,284,VALID,0.0261719,
2010-02-04, 00:39:04,VALID,1010.37,VALID,0,VALID,85.05,VALID,0,VALID,24.0837,VALID,284,VALID,0.00078125,
2010-02-04, 00:40:04,VALID,1010.36,VALID,0,VALID,85.0272,VALID,0,VALID,24.0837,VALID,284,VALID,0.130859,
2010-02-04, 00:41:04,VALID,1010.34,VALID,0,VALID,85.0577,VALID,0,VALID,24.1032,VALID,284,VALID,0.0757812,
2010-02-04, 00:42:04,VALID,1010.36,VALID,0,VALID,85.0043,VALID,0,VALID,24.0837,VALID,284,VALID,0.383203,
2010-02-04, 00:43:04,VALID,1010.37,VALID,0,VALID,85.0348,VALID,0,VALID,24.0643,VALID,284,VALID,0.0285156,
2010-02-04, 00:44:04,VALID,1010.38,VALID,0,VALID,84.9967,VALID,0,VALID,24.1227,VALID,348,VALID,0.298438,
2010-02-04, 00:45:04,VALID,1010.4,VALID,0,VALID,85.0119,VALID,0,VALID,24.1227,VALID,348,VALID,0.321094,
2010-02-04, 00:46:04,VALID,1010.37,VALID,0,VALID,85.0348,VALID,0,VALID,24.1209,VALID,348,VALID,0,
2010-02-04, 00:47:04,VALID,1010.38,VALID,0,VALID,85.0424,VALID,0,VALID,24.1014,VALID,348,VALID,0.271094,
2010-02-04, 00:48:04,VALID,1010.37,VALID,0,VALID,85.0272,VALID,0,VALID,24.1227,VALID,348,VALID,0.0917969,
2010-02-04, 00:49:04,VALID,1010.38,VALID,0,VALID,85.0272,VALID,0,VALID,24.1227,VALID,348,VALID,0.147266,
2010-02-04, 00:50:04,VALID,1010.39,VALID,0,VALID,85.0424,VALID,0,VALID,24.1032,VALID,348,VALID,0.271094,
2010-02-04, 00:51:04,VALID,1010.37,VALID,0,VALID,85.0272,VALID,0,VALID,24.1227,VALID,348,VALID,0.273828,
2010-02-04, 00:52:04,VALID,1010.37,VALID,0,VALID,85.0195,VALID,0,VALID,24.1032,VALID,348,VALID,0.178906,
2010-02-04, 00:53:04,VALID,1010.3,VALID,0,VALID,85.0348,VALID,0.105969,VALID,24.0837,VALID,348,VALID,0.358984,
2010-02-04, 00:54:04,VALID,1010.3,VALID,0,VALID,85.0195,VALID,0.105969,VALID,24.0643,VALID,348,VALID,0.282031,
2010-02-04, 00:55:04,VALID,1010.26,VALID,0,VALID,85.0195,VALID,0.105969,VALID,24.0429,VALID,348,VALID,0.173047,
2010-02-04, 00:56:04,VALID,1010.22,VALID,0,VALID,85.0119,VALID,0,VALID,24.0448,VALID,348,VALID,0.28125,
2010-02-04, 00:57:04,VALID,1010.22,VALID,0,VALID,85.0272,VALID,0,VALID,24.0253,VALID,348,VALID,0.00195313,
2010-02-04, 00:58:04,VALID,1010.19,VALID,0,VALID,84.9967,VALID,0.105969,VALID,24.004,VALID,348,VALID,0.223438,
2010-02-04, 00:59:04,VALID,1010.17,VALID,0,VALID,85.0424,VALID,0,VALID,24.0058,VALID,348,VALID,0,
2010-02-04, 01:00:04,VALID,1010.18,VALID,0,VALID,84.9661,VALID,0.105969,VALID,24.0253,VALID,316,VALID,0.41875,
2010-02-04, 01:01:04,VALID,1010.13,VALID,0,VALID,84.989,VALID,0.105969,VALID,24.0058,VALID,316,VALID,0,
2010-02-04, 01:02:04,VALID,1010.11,VALID,0,VALID,85.0043,VALID,0,VALID,23.9845,VALID,316,VALID,0.152344,
2010-02-04, 01:03:04,VALID,1010.11,VALID,0,VALID,85.0043,VALID,0,VALID,24.0253,VALID,316,VALID,0.127344,
2010-02-04, 01:04:04,VALID,1010.09,VALID,0,VALID,85.05,VALID,0,VALID,24.0253,VALID,316,VALID,0.185156,
2010-02-04, 01:05:04,VALID,1010.09,VALID,0,VALID,85.0577,VALID,0,VALID,24.004,VALID,316,VALID,0.271094,
2010-02-04, 01:06:04,VALID,1010.09,VALID,0,VALID,85.0119,VALID,0,VALID,24.0253,VALID,316,VALID,0.216797,
2010-02-04, 01:07:04,VALID,1010.09,VALID,0,VALID,85.0119,VALID,0,VALID,24.0253,VALID,316,VALID,0,
2010-02-04, 01:08:04,VALID,1010.09,VALID,0,VALID,85.0043,VALID,0.105969,VALID,24.0448,VALID,316,VALID,0,
2010-02-04, 01:09:04,VALID,1010.08,VALID,0,VALID,85.0272,VALID,0.105969,VALID,24.0253,VALID,316,VALID,0,
2010-02-04, 01:10:04,VALID,1010.1,VALID,0,VALID,85.0272,VALID,0,VALID,23.9863,VALID,316,VALID,0,
2010-02-04, 01:11:04,VALID,1010.08,VALID,0,VALID,84.9814,VALID,0,VALID,24.0058,VALID,316,VALID,0,
2010-02-04, 01:12:04,VALID,1010.09,VALID,0,VALID,85.0653,VALID,0,VALID,23.9845,VALID,316,VALID,0,
2010-02-04, 01:13:04,VALID,1010.07,VALID,0,VALID,85.0272,VALID,0,VALID,23.9668,VALID,316,VALID,0,
2010-02-04, 01:14:04,VALID,1010.07,VALID,0,VALID,85.0043,VALID,0,VALID,23.9881,VALID,316,VALID,0,
2010-02-04, 01:15:04,VALID,1010.08,VALID,0,VALID,85.0119,VALID,0,VALID,23.9668,VALID,316,VALID,0,
2010-02-04, 01:16:04,VALID,1010.05,VALID,0,VALID,85.0348,VALID,0,VALID,23.9686,VALID,316,VALID,0,
2010-02-04, 01:17:04,VALID,1010.07,VALID,0,VALID,84.9967,VALID,0,VALID,23.9881,VALID,316,VALID,0,
2010-02-04, 01:18:04,VALID,1010.08,VALID,0,VALID,85.0348,VALID,0,VALID,23.9473,VALID,316,VALID,0,
2010-02-04, 01:19:04,VALID,1010.06,VALID,0,VALID,85.0348,VALID,0,VALID,23.9473,VALID,316,VALID,0,
2010-02-04, 01:20:04,VALID,1010.05,VALID,0,VALID,85.0348,VALID,0,VALID,23.9686,VALID,316,VALID,0,
2010-02-04, 01:21:04,VALID,1010.03,VALID,0,VALID,85.0272,VALID,0,VALID,23.9297,VALID,316,VALID,0,
2010-02-04, 01:22:04,VALID,1010.04,VALID,0,VALID,85.0348,VALID,0,VALID,23.9297,VALID,316,VALID,0,
2010-02-04, 01:23:04,VALID,1010.05,VALID,0,VALID,85.0805,VALID,0,VALID,23.8694,VALID,316,VALID,0,
2010-02-04, 01:24:04,VALID,1010.03,VALID,0,VALID,85.0577,VALID,0,VALID,23.8499,VALID,316,VALID,0,
2010-02-04, 01:25:04,VALID,1010.03,VALID,0,VALID,85.0348,VALID,0,VALID,23.8304,VALID,316,VALID,0,
2010-02-04, 01:26:04,VALID,1010,VALID,0,VALID,85.1034,VALID,0,VALID,23.8517,VALID,316,VALID,0,
2010-02-04, 01:27:04,VALID,1009.99,VALID,0,VALID,85.0729,VALID,0,VALID,23.8127,VALID,316,VALID,0,
2010-02-04, 01:28:04,VALID,1009.98,VALID,0,VALID,85.0653,VALID,0,VALID,23.7701,VALID,316,VALID,0,
2010-02-04, 01:29:04,VALID,1009.99,VALID,0,VALID,85.1187,VALID,0.105969,VALID,23.772,VALID,316,VALID,0,
2010-02-04, 01:30:04,VALID,1010.01,VALID,0,VALID,85.0424,VALID,0.105969,VALID,23.7701,VALID,316,VALID,0,
2010-02-04, 01:31:04,VALID,1009.98,VALID,0,VALID,85.0272,VALID,0.105969,VALID,23.7701,VALID,316,VALID,0,
2010-02-04, 01:32:04,VALID,1009.98,VALID,0,VALID,85.0424,VALID,0.105969,VALID,23.7896,VALID,316,VALID,0,
2010-02-04, 01:33:04,VALID,1010,VALID,0,VALID,85.0424,VALID,0,VALID,23.8109,VALID,316,VALID,0,
2010-02-04, 01:34:04,VALID,1010,VALID,0,VALID,85.05,VALID,0,VALID,23.7896,VALID,316,VALID,0,
2010-02-04, 01:35:04,VALID,1009.97,VALID,0,VALID,85.0195,VALID,0.105969,VALID,23.7701,VALID,316,VALID,0,
2010-02-04, 01:36:04,VALID,1009.98,VALID,0,VALID,85.05,VALID,0.105969,VALID,23.7701,VALID,316,VALID,0,
2010-02-04, 01:37:04,VALID,1009.99,VALID,0,VALID,84.9814,VALID,0,VALID,23.8109,VALID,316,VALID,0,
2010-02-04, 01:38:05,VALID,1009.95,VALID,0,VALID,85.0424,VALID,0.105969,VALID,23.8109,VALID,316,VALID,0,
2010-02-04, 01:39:05,VALID,1009.95,VALID,0,VALID,85.0424,VALID,0.105969,VALID,23.7896,VALID,316,VALID,0,
2010-02-04, 01:40:05,VALID,1009.92,VALID,0,VALID,85.0577,VALID,0,VALID,23.7701,VALID,316,VALID,0,
2010-02-04, 01:41:05,VALID,1009.89,VALID,0,VALID,85.0653,VALID,0.105969,VALID,23.7701,VALID,316,VALID,0,
2010-02-04, 01:42:05,VALID,1009.88,VALID,0,VALID,85.0805,VALID,0.105969,VALID,23.772,VALID,316,VALID,0,
2010-02-04, 01:43:05,VALID,1009.86,VALID,0,VALID,85.05,VALID,0.105969,VALID,23.7312,VALID,316,VALID,0,
2010-02-04, 01:44:05,VALID,1009.83,VALID,0,VALID,85.0577,VALID,0,VALID,23.7117,VALID,316,VALID,0,
2010-02-04, 01:45:05,VALID,1009.82,VALID,0,VALID,85.0424,VALID,0,VALID,23.733,VALID,316,VALID,0,
2010-02-04, 01:46:05,VALID,1009.81,VALID,0,VALID,85.0272,VALID,0,VALID,23.733,VALID,316,VALID,0,
2010-02-04, 01:47:05,VALID,1009.84,VALID,0,VALID,85.05,VALID,0,VALID,23.7117,VALID,316,VALID,0,
2010-02-04, 01:48:05,VALID,1009.83,VALID,0,VALID,85.0424,VALID,0,VALID,23.7135,VALID,316,VALID,0,
2010-02-04, 01:49:05,VALID,1009.85,VALID,0,VALID,85.0424,VALID,0,VALID,23.733,VALID,316,VALID,0,
2010-02-04, 01:50:05,VALID,1009.85,VALID,0,VALID,85.0424,VALID,0.105969,VALID,23.694,VALID,316,VALID,0,
2010-02-04, 01:51:05,VALID,1009.83,VALID,0,VALID,85.05,VALID,0,VALID,23.6727,VALID,316,VALID,0,
2010-02-04, 01:52:05,VALID,1009.8,VALID,0,VALID,85.0424,VALID,0,VALID,23.694,VALID,316,VALID,0,
2010-02-04, 01:53:05,VALID,1009.8,VALID,0,VALID,85.0272,VALID,0,VALID,23.6727,VALID,316,VALID,0,
2010-02-04, 01:54:05,VALID,1009.78,VALID,0,VALID,85.0348,VALID,0,VALID,23.6727,VALID,316,VALID,0,
2010-02-04, 01:55:05,VALID,1009.74,VALID,0,VALID,85.0653,VALID,0,VALID,23.6745,VALID,316,VALID,0,
2010-02-04, 01:56:05,VALID,1009.74,VALID,0,VALID,85.0653,VALID,0.105969,VALID,23.6143,VALID,316,VALID,0,
2010-02-04, 01:57:05,VALID,1009.75,VALID,0,VALID,85.1034,VALID,0,VALID,23.5753,VALID,316,VALID,0,
2010-02-04, 01:58:05,VALID,1009.72,VALID,0,VALID,85.111,VALID,0,VALID,23.5558,VALID,316,VALID,0,
2010-02-04, 01:59:05,VALID,1009.71,VALID,0,VALID,85.1568,VALID,0,VALID,23.5363,VALID,316,VALID,0,
2010-02-04, 02:00:05,VALID,1009.73,VALID,0,VALID,85.0805,VALID,0,VALID,23.5169,VALID,316,VALID,0,
2010-02-04, 02:01:05,VALID,1009.71,VALID,0,VALID,85.0653,VALID,0,VALID,23.5169,VALID,316,VALID,0,
2010-02-04, 02:02:05,VALID,1009.72,VALID,0,VALID,85.05,VALID,0,VALID,23.5169,VALID,316,VALID,0,
2010-02-04, 02:03:05,VALID,1009.72,VALID,0,VALID,85.0729,VALID,0,VALID,23.4779,VALID,316,VALID,0,
2010-02-04, 02:04:05,VALID,1009.74,VALID,0,VALID,85.0882,VALID,0.105969,VALID,23.4797,VALID,316,VALID,0,
2010-02-04, 02:05:05,VALID,1009.72,VALID,0,VALID,85.111,VALID,0.105969,VALID,23.4389,VALID,316,VALID,0,
2010-02-04, 02:06:05,VALID,1009.75,VALID,0,VALID,85.1187,VALID,0,VALID,23.4,VALID,316,VALID,0,
2010-02-04, 02:07:05,VALID,1009.75,VALID,0,VALID,85.1263,VALID,0.105969,VALID,23.4212,VALID,316,VALID,0,
2010-02-04, 02:08:05,VALID,1009.75,VALID,0,VALID,85.1187,VALID,0,VALID,23.3823,VALID,316,VALID,0,
2010-02-04, 02:09:05,VALID,1009.79,VALID,0,VALID,85.1339,VALID,0,VALID,23.3823,VALID,316,VALID,0.291797,
2010-02-04, 02:10:05,VALID,1009.77,VALID,0,VALID,85.1492,VALID,0,VALID,23.322,VALID,316,VALID,0.241406,
2010-02-04, 02:11:05,VALID,1009.76,VALID,0,VALID,85.1492,VALID,0,VALID,23.3026,VALID,316,VALID,0.226563,
2010-02-04, 02:12:05,VALID,1009.78,VALID,0,VALID,85.111,VALID,0,VALID,23.3238,VALID,316,VALID,0.0523437,
2010-02-04, 02:13:05,VALID,1009.79,VALID,0,VALID,85.1339,VALID,0,VALID,23.3026,VALID,316,VALID,0,
2010-02-04, 02:14:05,VALID,1009.77,VALID,0,VALID,85.1492,VALID,0.105969,VALID,23.3238,VALID,316,VALID,0,
2010-02-04, 02:15:05,VALID,1009.77,VALID,0,VALID,85.1644,VALID,0,VALID,23.3043,VALID,316,VALID,0,
2010-02-04, 02:16:05,VALID,1009.78,VALID,0,VALID,85.2178,VALID,0,VALID,23.2441,VALID,316,VALID,0,
2010-02-04, 02:17:05,VALID,1009.8,VALID,0,VALID,85.1873,VALID,0,VALID,23.2246,VALID,316,VALID,0,
2010-02-04, 02:18:05,VALID,1009.79,VALID,0,VALID,85.1644,VALID,0,VALID,23.2264,VALID,316,VALID,0,
2010-02-04, 02:19:05,VALID,1009.81,VALID,0,VALID,85.1644,VALID,0.105969,VALID,23.2264,VALID,316,VALID,0,
2010-02-04, 02:20:05,VALID,1009.8,VALID,0,VALID,85.172,VALID,0,VALID,23.2069,VALID,316,VALID,0,
2010-02-04, 02:21:05,VALID,1009.83,VALID,0,VALID,85.1644,VALID,0.105969,VALID,23.1857,VALID,316,VALID,0,
2010-02-04, 02:22:05,VALID,1009.82,VALID,0,VALID,85.1415,VALID,0.105969,VALID,23.2264,VALID,316,VALID,0,
2010-02-04, 02:23:05,VALID,1009.81,VALID,0,VALID,85.1263,VALID,0,VALID,23.2264,VALID,316,VALID,0,
2010-02-04, 02:24:05,VALID,1009.8,VALID,0,VALID,85.1644,VALID,0.105969,VALID,23.2051,VALID,316,VALID,0,
2010-02-04, 02:25:05,VALID,1009.81,VALID,0,VALID,85.172,VALID,0.105969,VALID,23.1857,VALID,316,VALID,0,
2010-02-04, 02:26:05,VALID,1009.8,VALID,0,VALID,85.1492,VALID,0.105969,VALID,23.2069,VALID,316,VALID,0.00195313,
2010-02-04, 02:27:05,VALID,1009.81,VALID,0,VALID,85.1263,VALID,0,VALID,23.2051,VALID,316,VALID,0.0191406,
2010-02-04, 02:28:05,VALID,1009.84,VALID,0,VALID,85.172,VALID,0.105969,VALID,23.2069,VALID,316,VALID,0,
2010-02-04, 02:29:05,VALID,1009.85,VALID,0,VALID,85.1492,VALID,0.105969,VALID,23.1857,VALID,316,VALID,0,
2010-02-04, 02:30:05,VALID,1009.84,VALID,0,VALID,85.1492,VALID,0,VALID,23.1857,VALID,316,VALID,0,
2010-02-04, 02:31:05,VALID,1009.87,VALID,0,VALID,85.1644,VALID,0,VALID,23.1874,VALID,316,VALID,0,
2010-02-04, 02:32:05,VALID,1009.87,VALID,0,VALID,85.1568,VALID,0,VALID,23.1679,VALID,316,VALID,0,
2010-02-04, 02:33:05,VALID,1009.87,VALID,0,VALID,85.1568,VALID,0.105969,VALID,23.1679,VALID,316,VALID,0,
2010-02-04, 02:34:05,VALID,1009.89,VALID,0,VALID,85.1492,VALID,0.105969,VALID,23.1467,VALID,316,VALID,0,
2010-02-04, 02:35:05,VALID,1009.89,VALID,0,VALID,85.2254,VALID,0,VALID,23.1272,VALID,316,VALID,0,
2010-02-04, 02:36:05,VALID,1009.89,VALID,0,VALID,85.1949,VALID,0,VALID,23.1077,VALID,316,VALID,0,
2010-02-04, 02:37:05,VALID,1009.9,VALID,0,VALID,85.172,VALID,0.105969,VALID,23.1077,VALID,316,VALID,0,
2010-02-04, 02:38:05,VALID,1009.89,VALID,0,VALID,85.1415,VALID,0,VALID,23.1095,VALID,316,VALID,0,
2010-02-04, 02:39:05,VALID,1009.89,VALID,0,VALID,85.1644,VALID,0,VALID,23.0883,VALID,316,VALID,0,
2010-02-04, 02:40:05,VALID,1009.84,VALID,0,VALID,85.1568,VALID,0,VALID,23.09,VALID,316,VALID,0,
2010-02-04, 02:41:05,VALID,1009.87,VALID,0,VALID,85.1568,VALID,0,VALID,23.0688,VALID,316,VALID,0,
2010-02-04, 02:42:05,VALID,1009.85,VALID,0,VALID,85.1568,VALID,0,VALID,23.0688,VALID,19,VALID,0,
2010-02-04, 02:43:05,VALID,1009.83,VALID,0,VALID,85.1415,VALID,0,VALID,23.1077,VALID,19,VALID,0,
2010-02-04, 02:44:05,VALID,1009.81,VALID,0,VALID,85.1415,VALID,0.105969,VALID,23.0883,VALID,19,VALID,0,
2010-02-04, 02:45:05,VALID,1009.8,VALID,0,VALID,85.172,VALID,0,VALID,23.0688,VALID,19,VALID,0,
2010-02-04, 02:46:05,VALID,1009.79,VALID,0,VALID,85.1873,VALID,0,VALID,23.0493,VALID,19,VALID,0,
2010-02-04, 02:47:05,VALID,1009.78,VALID,0,VALID,85.1949,VALID,0.105969,VALID,23.0511,VALID,19,VALID,0,
2010-02-04, 02:48:05,VALID,1009.8,VALID,0,VALID,85.2102,VALID,0,VALID,23.0511,VALID,19,VALID,0,
2010-02-04, 02:49:05,VALID,1009.85,VALID,0,VALID,85.172,VALID,0,VALID,23.0511,VALID,41,VALID,0,
2010-02-04, 02:50:05,VALID,1009.82,VALID,0,VALID,85.2025,VALID,0,VALID,23.0705,VALID,41,VALID,0,
2010-02-04, 02:51:05,VALID,1009.84,VALID,0,VALID,85.2407,VALID,0.105969,VALID,23.0103,VALID,41,VALID,0,
2010-02-04, 02:52:05,VALID,1009.83,VALID,0,VALID,85.2407,VALID,0.105969,VALID,22.9909,VALID,41,VALID,0,
2010-02-04, 02:53:05,VALID,1009.84,VALID,0,VALID,85.2635,VALID,0.105969,VALID,22.9731,VALID,41,VALID,0,
2010-02-04, 02:54:05,VALID,1009.8,VALID,0,VALID,85.233,VALID,0,VALID,22.9926,VALID,40,VALID,0,
2010-02-04, 02:55:05,VALID,1009.82,VALID,0,VALID,85.2254,VALID,0,VALID,22.9519,VALID,41,VALID,0,
2010-02-04, 02:56:05,VALID,1009.8,VALID,0,VALID,85.2559,VALID,0,VALID,22.9731,VALID,41,VALID,0,
2010-02-04, 02:57:05,VALID,1009.8,VALID,0,VALID,85.2483,VALID,0.105969,VALID,22.9324,VALID,41,VALID,0,
2010-02-04, 02:58:05,VALID,1009.8,VALID,0,VALID,85.3551,VALID,0.105969,VALID,22.9129,VALID,41,VALID,0,
2010-02-04, 02:59:05,VALID,1009.82,VALID,0,VALID,85.2712,VALID,0,VALID,22.8935,VALID,41,VALID,0,
2010-02-04, 03:00:05,VALID,1009.85,VALID,0,VALID,85.2712,VALID,0.105969,VALID,22.8935,VALID,41,VALID,0,
2010-02-04, 03:01:05,VALID,1009.83,VALID,0,VALID,85.2788,VALID,0.105969,VALID,22.874,VALID,40,VALID,0,
2010-02-04, 03:02:05,VALID,1009.84,VALID,0,VALID,85.2712,VALID,0,VALID,22.8757,VALID,41,VALID,0,
2010-02-04, 03:03:05,VALID,1009.83,VALID,0,VALID,85.2635,VALID,0.105969,VALID,22.8545,VALID,41,VALID,0,
2010-02-04, 03:04:05,VALID,1009.87,VALID,0,VALID,85.2559,VALID,0,VALID,22.8757,VALID,41,VALID,0,
2010-02-04, 03:05:05,VALID,1009.85,VALID,0,VALID,85.2712,VALID,0.105969,VALID,22.8757,VALID,40,VALID,0,
2010-02-04, 03:06:05,VALID,1009.86,VALID,0,VALID,85.3017,VALID,0,VALID,22.835,VALID,41,VALID,0,
2010-02-04, 03:07:05,VALID,1009.86,VALID,0,VALID,85.2407,VALID,0.105969,VALID,22.835,VALID,41,VALID,0,
2010-02-04, 03:08:05,VALID,1009.85,VALID,0,VALID,85.2941,VALID,0.105969,VALID,22.8155,VALID,41,VALID,0,
2010-02-04, 03:09:05,VALID,1009.85,VALID,0,VALID,85.2712,VALID,0,VALID,22.8368,VALID,41,VALID,0,
2010-02-04, 03:10:05,VALID,1009.82,VALID,0,VALID,85.2788,VALID,0.105969,VALID,22.8155,VALID,41,VALID,0,
2010-02-04, 03:11:05,VALID,1009.81,VALID,0,VALID,85.2559,VALID,0,VALID,22.7961,VALID,40,VALID,0,
2010-02-04, 03:12:05,VALID,1009.83,VALID,0,VALID,85.2788,VALID,0.105969,VALID,22.8173,VALID,41,VALID,0,
2010-02-04, 03:13:05,VALID,1009.79,VALID,0,VALID,85.2635,VALID,0.105969,VALID,22.7961,VALID,41,VALID,0,
2010-02-04, 03:14:05,VALID,1009.8,VALID,0,VALID,85.2483,VALID,0.105969,VALID,22.8173,VALID,41,VALID,0,
2010-02-04, 03:15:05,VALID,1009.79,VALID,0,VALID,85.2559,VALID,0.105969,VALID,22.7961,VALID,40,VALID,0,
2010-02-04, 03:16:05,VALID,1009.8,VALID,0,VALID,85.2025,VALID,0.105969,VALID,22.8173,VALID,41,VALID,0,
2010-02-04, 03:17:05,VALID,1009.81,VALID,0,VALID,85.233,VALID,0.105969,VALID,22.7961,VALID,40,VALID,0,
2010-02-04, 03:18:05,VALID,1009.78,VALID,0,VALID,85.2407,VALID,0.105969,VALID,22.7961,VALID,40,VALID,0,
2010-02-04, 03:19:05,VALID,1009.83,VALID,0,VALID,85.2559,VALID,0.105969,VALID,22.7766,VALID,41,VALID,0,
2010-02-04, 03:20:05,VALID,1009.82,VALID,0,VALID,85.2407,VALID,0.105969,VALID,22.7571,VALID,41,VALID,0,
2010-02-04, 03:21:05,VALID,1009.81,VALID,0,VALID,85.2407,VALID,0.105969,VALID,22.7571,VALID,40,VALID,0,
2010-02-04, 03:22:05,VALID,1009.84,VALID,0,VALID,85.2178,VALID,0,VALID,22.7783,VALID,41,VALID,0,
2010-02-04, 03:23:05,VALID,1009.82,VALID,0,VALID,85.2254,VALID,0.105969,VALID,22.7766,VALID,40,VALID,0,
2010-02-04, 03:24:05,VALID,1009.84,VALID,0,VALID,85.2102,VALID,0,VALID,22.7571,VALID,40,VALID,0,
2010-02-04, 03:25:05,VALID,1009.83,VALID,0,VALID,85.2178,VALID,0,VALID,22.7766,VALID,41,VALID,0,
2010-02-04, 03:26:05,VALID,1009.83,VALID,0,VALID,85.2483,VALID,0,VALID,22.7571,VALID,40,VALID,0,
2010-02-04, 03:27:05,VALID,1009.86,VALID,0,VALID,85.233,VALID,0.105969,VALID,22.7571,VALID,41,VALID,0,
2010-02-04, 03:28:05,VALID,1009.86,VALID,0,VALID,85.2178,VALID,0,VALID,22.7571,VALID,41,VALID,0,
2010-02-04, 03:29:05,VALID,1009.86,VALID,0,VALID,85.1949,VALID,0,VALID,22.7978,VALID,40,VALID,0,
2010-02-04, 03:30:05,VALID,1009.91,VALID,0,VALID,85.2025,VALID,0.105969,VALID,22.8155,VALID,41,VALID,0,
2010-02-04, 03:31:05,VALID,1009.88,VALID,0,VALID,85.1339,VALID,0.105969,VALID,22.8155,VALID,40,VALID,0,
2010-02-04, 03:32:05,VALID,1009.92,VALID,0,VALID,85.1873,VALID,0,VALID,22.8173,VALID,41,VALID,0,
2010-02-04, 03:33:05,VALID,1009.93,VALID,0,VALID,85.2025,VALID,0.105969,VALID,22.8173,VALID,40,VALID,0,
2010-02-04, 03:34:05,VALID,1009.91,VALID,0,VALID,85.1263,VALID,0.105969,VALID,22.7961,VALID,41,VALID,0,
2010-02-04, 03:35:05,VALID,1009.91,VALID,0,VALID,85.0653,VALID,0.105969,VALID,22.7766,VALID,41,VALID,0,
2010-02-04, 03:36:05,VALID,1009.92,VALID,0,VALID,85.1339,VALID,0,VALID,22.7571,VALID,41,VALID,0,
2010-02-04, 03:37:05,VALID,1009.94,VALID,0,VALID,85.05,VALID,0.105969,VALID,22.7783,VALID,41,VALID,0,
2010-02-04, 03:38:05,VALID,1009.96,VALID,0,VALID,85.0424,VALID,0,VALID,22.7571,VALID,41,VALID,0,
2010-02-04, 03:39:05,VALID,1009.95,VALID,0,VALID,85.0043,VALID,0.105969,VALID,22.7376,VALID,40,VALID,0,
2010-02-04, 03:40:05,VALID,1010,VALID,0,VALID,84.8899,VALID,0.105969,VALID,22.7182,VALID,40,VALID,0,
2010-02-04, 03:41:05,VALID,1009.98,VALID,0,VALID,84.6992,VALID,0,VALID,22.7199,VALID,40,VALID,0,
2010-02-04, 03:42:05,VALID,1010.03,VALID,0,VALID,84.5238,VALID,0.105969,VALID,22.6987,VALID,41,VALID,0,
2010-02-04, 03:43:05,VALID,1010.06,VALID,0,VALID,84.4247,VALID,0.105969,VALID,22.7004,VALID,40,VALID,0,
2010-02-04, 03:44:05,VALID,1010.05,VALID,0,VALID,84.3332,VALID,0.105969,VALID,22.7004,VALID,41,VALID,0,
2010-02-04, 03:45:05,VALID,1010.05,VALID,0,VALID,84.2722,VALID,0.105969,VALID,22.7199,VALID,41,VALID,0,
2010-02-04, 03:46:05,VALID,1010.04,VALID,0,VALID,84.0206,VALID,0.105969,VALID,22.7199,VALID,41,VALID,0,
2010-02-04, 03:47:05,VALID,1010.04,VALID,0,VALID,84.0053,VALID,0,VALID,22.7004,VALID,41,VALID,0,
2010-02-04, 03:48:05,VALID,1010.03,VALID,0,VALID,84.0358,VALID,0.105969,VALID,22.6402,VALID,40,VALID,0,
2010-02-04, 03:49:05,VALID,1010.03,VALID,0,VALID,84.0053,VALID,0.105969,VALID,22.6614,VALID,41,VALID,0,
2010-02-04, 03:50:05,VALID,1010.01,VALID,0,VALID,83.9824,VALID,0,VALID,22.6614,VALID,40,VALID,0,
2010-02-04, 03:51:05,VALID,1010.01,VALID,0,VALID,83.9824,VALID,0.105969,VALID,22.6614,VALID,41,VALID,0,